When you browse on this site, cookies collect data to enhance your experience and personalize the content and advertising you see.
Visit our Privacy Policy to learn more. By continuing to use the site, you agree to this use of cookies and data.
  • In Hungary
  • List of Countries
  • For 7 days
  • Water Temperature
  • Satellite Maps
  • Weather Map
  • News
  • Weather Widgets
  • user-avatar
    Login

    Hourly Weather Saburovka

    Today, 24 January, Thursday

    Time Temperature Precipitation Wind Pressure Humidity
    00:00 -23°C° 0 mm 3 mps 753 mmHg 88%
    01:00 -23°C° 0 mm 4 mps 752 mmHg 88%
    02:00 -22°C° 0 mm 4 mps 752 mmHg 88%
    03:00 -22°C° 0 mm 4 mps 752 mmHg 88%
    04:00 -22°C° 0.2 mm 5 mps 751 mmHg 90%
    05:00 -21°C° 0.2 mm 5 mps 750 mmHg 92%
    06:00 -21°C° 0.2 mm 6 mps 749 mmHg 95%
    07:00 -20°C° 0.8 mm 7 mps 748 mmHg 94%
    08:00 -19°C° 0.8 mm 7 mps 748 mmHg 94%
    09:00 -18°C° 0.8 mm 8 mps 747 mmHg 94%
    10:00 -17°C° 0.6 mm 8 mps 746 mmHg 93%
    11:00 -17°C° 0.6 mm 8 mps 746 mmHg 93%
    12:00 -16°C° 0.6 mm 8 mps 745 mmHg 92%
    13:00 -14°C° 0.3 mm 7 mps 744 mmHg 92%
    14:00 -12°C° 0.3 mm 6 mps 743 mmHg 93%
    15:00 -12°C° 0.3 mm 6 mps 743 mmHg 93%
    16:00 -11°C° 0.3 mm 5 mps 743 mmHg 94%
    17:00 -10°C° 0.3 mm 4 mps 742 mmHg 95%
    18:00 -8°C° 0.3 mm 3 mps 742 mmHg 95%
    19:00 -7°C° 0.2 mm 2 mps 742 mmHg 96%
    20:00 -7°C° 0.2 mm 2 mps 742 mmHg 96%
    21:00 -6°C° 0.2 mm 1 mps 742 mmHg 97%
    22:00 -8°C° 0 mm 2 mps 743 mmHg 96%
    23:00 -11°C° 0 mm 4 mps 743 mmHg 96%

    Tomorrow, 25 January, Friday

    Time Temperature Precipitation Wind Pressure Humidity
    00:00 -12°C° 0 mm 5 mps 743 mmHg 95%
    01:00 -15°C° 0 mm 5 mps 744 mmHg 95%
    02:00 -17°C° 0 mm 4 mps 745 mmHg 95%
    03:00 -19°C° 0 mm 4 mps 745 mmHg 96%
    04:00 -20°C° 0 mm 4 mps 746 mmHg 97%
    05:00 -23°C° 0 mm 4 mps 747 mmHg 98%
    06:00 -23°C° 0 mm 3 mps 748 mmHg 99%
    07:00 -23°C° 0 mm 3 mps 749 mmHg 99%
    08:00 -24°C° 0 mm 3 mps 749 mmHg 99%
    09:00 -24°C° 0 mm 3 mps 750 mmHg 99%
    10:00 -23°C° 0 mm 3 mps 751 mmHg 97%
    11:00 -22°C° 0 mm 3 mps 751 mmHg 96%
    12:00 -19°C° 0 mm 3 mps 752 mmHg 94%
    13:00 -19°C° 0 mm 3 mps 752 mmHg 94%
    14:00 -19°C° 0 mm 3 mps 753 mmHg 94%
    15:00 -18°C° 0 mm 2 mps 753 mmHg 93%
    16:00 -19°C° 0 mm 2 mps 754 mmHg 93%
    17:00 -20°C° 0 mm 2 mps 754 mmHg 93%
    18:00 -21°C° 0 mm 2 mps 754 mmHg 92%
    19:00 -23°C° 0 mm 3 mps 755 mmHg 92%
    20:00 -23°C° 0 mm 3 mps 755 mmHg 91%
    21:00 -24°C° 0 mm 3 mps 755 mmHg 90%
    22:00 -24°C° 0 mm 3 mps 755 mmHg 90%
    23:00 -24°C° 0 mm 3 mps 755 mmHg 90%

    Day after tomorrow, 26 January, Saturday

    Time Temperature Precipitation Wind Pressure Humidity
    00:00 -24°C° 0 mm 3 mps 756 mmHg 89%
    01:00 -24°C° 0 mm 3 mps 755 mmHg 89%
    02:00 -24°C° 0 mm 3 mps 755 mmHg 88%
    03:00 -24°C° 0 mm 3 mps 755 mmHg 87%
    04:00 -24°C° 0 mm 3 mps 755 mmHg 86%
    05:00 -24°C° 0 mm 3 mps 755 mmHg 85%
    06:00 -25°C° 0 mm 4 mps 754 mmHg 84%
    07:00 -24°C° 0 mm 4 mps 754 mmHg 83%
    08:00 -25°C° 0 mm 5 mps 754 mmHg 82%
    09:00 -24°C° 0 mm 5 mps 754 mmHg 81%
    10:00 -23°C° 0 mm 6 mps 753 mmHg 80%
    11:00 -21°C° 0 mm 6 mps 753 mmHg 79%
    12:00 -20°C° 0 mm 7 mps 752 mmHg 78%
    13:00 -20°C° 0 mm 7 mps 752 mmHg 79%
    14:00 -18°C° 0 mm 6 mps 751 mmHg 79%
    15:00 -18°C° 0 mm 6 mps 750 mmHg 79%
    16:00 -19°C° 0 mm 7 mps 750 mmHg 79%
    17:00 -19°C° 0 mm 7 mps 749 mmHg 79%
    18:00 -19°C° 0 mm 7 mps 749 mmHg 80%
    19:00 -19°C° 0 mm 7 mps 749 mmHg 79%
    20:00 -19°C° 0 mm 7 mps 748 mmHg 79%
    21:00 -19°C° 0 mm 7 mps 748 mmHg 79%
    22:00 -19°C° 0.3 mm 7 mps 747 mmHg 82%
    23:00 -19°C° 0.3 mm 7 mps 747 mmHg 85%

    27 January, Sunday

    Time Temperature Precipitation Wind Pressure Humidity
    00:00 -19°C° 0.3 mm 7 mps 747 mmHg 88%
    01:00 -19°C° 0.1 mm 7 mps 746 mmHg 90%
    02:00 -19°C° 0.1 mm 7 mps 746 mmHg 91%
    03:00 -17°C° 0.1 mm 6 mps 746 mmHg 92%
    04:00 -17°C° 0.1 mm 6 mps 745 mmHg 92%
    05:00 -16°C° 0.1 mm 6 mps 744 mmHg 93%
    06:00 -15°C° 0.1 mm 6 mps 744 mmHg 93%
    07:00 -14°C° 0.1 mm 6 mps 743 mmHg 93%
    08:00 -13°C° 0.1 mm 7 mps 743 mmHg 92%
    09:00 -12°C° 0.1 mm 7 mps 743 mmHg 92%
    10:00 -12°C° 0 mm 7 mps 742 mmHg 91%
    11:00 -12°C° 0 mm 8 mps 742 mmHg 91%
    12:00 -11°C° 0 mm 8 mps 741 mmHg 90%
    13:00 -11°C° 0.2 mm 8 mps 740 mmHg 91%
    14:00 -11°C° 0.2 mm 8 mps 740 mmHg 91%
    15:00 -10°C° 0.2 mm 8 mps 739 mmHg 91%
    16:00 -10°C° 0.3 mm 8 mps 739 mmHg 91%
    17:00 -8°C° 0.3 mm 8 mps 738 mmHg 91%
    18:00 -8°C° 0.3 mm 8 mps 738 mmHg 91%
    19:00 -7°C° 0.3 mm 8 mps 737 mmHg 91%
    20:00 -7°C° 0.3 mm 8 mps 737 mmHg 91%
    21:00 -8°C° 0.3 mm 9 mps 736 mmHg 91%
    22:00 -6°C° 0.2 mm 8 mps 736 mmHg 91%
    23:00 -6°C° 0.2 mm 8 mps 735 mmHg 91%

    28 January, Monday

    Time Temperature Precipitation Wind Pressure Humidity
    00:00 -6°C° 0.2 mm 8 mps 735 mmHg 91%
    01:00 -5°C° 0.5 mm 8 mps 735 mmHg 91%
    02:00 -4°C° 0.5 mm 8 mps 735 mmHg 92%
    03:00 -4°C° 0.5 mm 8 mps 734 mmHg 92%
    04:00 -3°C° 0.6 mm 7 mps 734 mmHg 93%
    05:00 -3°C° 0.6 mm 7 mps 734 mmHg 93%
    06:00 -3°C° 0.6 mm 6 mps 734 mmHg 93%
    07:00 -6°C° 0.3 mm 6 mps 735 mmHg 93%
    08:00 -9°C° 0.3 mm 6 mps 735 mmHg 92%
    09:00 -11°C° 0.3 mm 5 mps 735 mmHg 92%
    10:00 -12°C° 0 mm 6 mps 736 mmHg 92%
    11:00 -12°C° 0 mm 6 mps 737 mmHg 92%
    12:00 -14°C° 0 mm 6 mps 737 mmHg 92%
    13:00 -14°C° 0.1 mm 6 mps 737 mmHg 92%
    14:00 -15°C° 0.1 mm 6 mps 738 mmHg 92%
    15:00 -16°C° 0.1 mm 6 mps 738 mmHg 93%
    16:00 -15°C° 0.2 mm 5 mps 739 mmHg 93%
    17:00 -17°C° 0.2 mm 5 mps 739 mmHg 93%
    18:00 -17°C° 0.2 mm 5 mps 740 mmHg 93%
    19:00 -17°C° 0.1 mm 5 mps 740 mmHg 93%
    20:00 -17°C° 0.1 mm 5 mps 741 mmHg 94%
    21:00 -15°C° 0.1 mm 5 mps 741 mmHg 94%
    22:00 -17°C° 0 mm 5 mps 742 mmHg 94%
    23:00 -16°C° 0 mm 4 mps 742 mmHg 95%

    29 January, Tuesday

    Time Temperature Precipitation Wind Pressure Humidity
    00:00 -16°C° 0 mm 4 mps 743 mmHg 95%
    01:00 -16°C° 0 mm 4 mps 743 mmHg 95%
    02:00 -17°C° 0 mm 4 mps 744 mmHg 96%
    03:00 -17°C° 0 mm 4 mps 744 mmHg 96%
    04:00 -17°C° 0 mm 4 mps 744 mmHg 96%
    05:00 -16°C° 0 mm 3 mps 745 mmHg 96%
    06:00 -15°C° 0 mm 3 mps 745 mmHg 96%
    07:00 -15°C° 0 mm 3 mps 745 mmHg 96%
    08:00 -15°C° 0 mm 3 mps 746 mmHg 97%
    09:00 -14°C° 0 mm 2 mps 746 mmHg 97%
    10:00 -14°C° 0 mm 2 mps 746 mmHg 97%
    11:00 -14°C° 0 mm 2 mps 746 mmHg 96%
    12:00 -14°C° 0 mm 2 mps 747 mmHg 96%
    13:00 -14°C° 0 mm 2 mps 747 mmHg 95%
    14:00 -14°C° 0 mm 2 mps 747 mmHg 94%
    15:00 -14°C° 0 mm 2 mps 747 mmHg 93%
    16:00 -14°C° 0 mm 2 mps 747 mmHg 91%
    17:00 -15°C° 0 mm 3 mps 747 mmHg 89%
    18:00 -16°C° 0 mm 3 mps 747 mmHg 87%
    19:00 -15°C° 0 mm 3 mps 746 mmHg 88%
    20:00 -15°C° 0 mm 4 mps 746 mmHg 88%
    21:00 -14°C° 0 mm 4 mps 746 mmHg 88%
    22:00 -12°C° 0 mm 4 mps 746 mmHg 87%
    23:00 -13°C° 0 mm 5 mps 746 mmHg 86%
    Show more